[[{"header":{"parameterUnit":"m.s-1","parameterCategory":1,"la1":30.2991,"la2":30.254,"lo1":-89.0895,"lo2":-89.0444,"dy":0.0017,"dx":0.0017,"nx":28,"ny":28,"refTime":"2024-06-04T03:00:00:Z","depth":0,"parameterNumber":2,"parameterNumberName":"U-component_of_WINDS"},"data":[0,0,0,0,0,0,0,0,0,0,0,0,0,0,0,0,0,0,0,0,0,0,0,0,0,0,0,0,0,0,0,0,0,0,0,0,0,0,0,0,0,0,0,0,0,0,0,0,0,0,0,0,0,0,0,0,0,0,-3.2223,-3.2223,0,-3.2214,-3.2214,-3.2214,-3.2148,-3.2146,-3.2145,-3.2143,-3.2134,-3.2135,-3.2136,0,0,0,0,0,0,0,0,0,0,0,0,0,-3.2184,-3.2185,-3.2223,-3.2223,-3.2222,-3.2214,-3.2214,-3.2214,-3.2148,-3.2146,-3.2144,-3.2143,-3.2134,-3.2135,-3.2137,0,0,0,0,0,0,0,0,0,0,0,0,0,-3.219,-3.2185,-3.2223,-3.2189,-3.2186,-3.2214,-3.2214,-3.2214,-3.2149,-3.2146,-3.2144,-3.2142,-3.2133,-3.2135,-3.2137,-3.2197,0,0,-3.2142,-3.2143,0,0,0,0,0,0,0,0,-3.219,-3.2192,-3.2194,-3.2191,-3.2188,-3.218,-3.2197,-3.2208,-3.2149,-3.2163,-3.2143,-3.2141,-3.2151,-3.2151,-3.2155,-3.2196,-3.2196,-3.2143,-3.2144,-3.2145,-3.2145,0,0,0,0,0,0,0,-3.219,-3.2192,-3.2219,-3.2194,-3.219,-3.2174,-3.2173,-3.2198,-3.2171,-3.2161,-3.2157,-3.2157,-3.2149,-3.2153,-3.2154,-3.2196,-3.2143,-3.2144,-3.2145,-3.2146,-3.2287,-3.2289,0,0,0,0,0,0,-3.2194,-3.2192,-3.2219,-3.2219,-3.2183,-3.2177,-3.2175,-3.2185,-3.217,-3.2166,-3.2159,-3.2154,-3.2151,-3.2152,-3.2154,-3.2222,-3.2145,-3.2146,-3.2147,-3.2284,-3.2287,-3.229,0,0,0,0,0,0,-3.2193,-3.2197,-3.222,-3.2204,-3.2206,-3.218,-3.2192,-3.2186,-3.219,-3.2168,-3.2163,-3.2168,-3.2149,-3.2151,-3.2187,-3.2221,-3.2147,-3.2149,-3.2281,-3.2285,-3.2289,-3.2361,0,0,0,0,0,0,-3.2193,-3.2197,-3.2219,-3.2205,-3.2207,-3.2253,-3.2194,-3.2187,-3.2193,-3.2187,-3.2175,-3.2171,-3.2148,-3.2184,-3.2189,-3.2223,-3.215,-3.2278,-3.2283,-3.2287,-3.2355,-3.2367,-3.2377,0,0,0,0,0,-3.2191,-3.224,-3.2221,-3.2224,-3.2234,-3.2255,-3.2256,-3.2228,-3.2197,-3.2219,-3.2205,-3.2172,-3.2218,-3.2188,-3.2193,-3.2228,-3.2275,-3.2281,-3.2287,-3.2351,-3.2365,-3.2377,0,0,0,0,0,0,-3.2257,-3.2237,-3.2216,-3.2261,-3.226,-3.2244,-3.227,-3.2243,-3.2251,-3.2244,-3.221,-3.2208,-3.2249,-3.2242,-3.221,-3.2286,-3.2241,-3.2248,-3.2288,-3.2301,-3.2312,-3.2311,-3.2152,0,0,0,0,0,-3.2277,-3.2296,-3.2277,-3.2319,-3.232,-3.2296,-3.2304,-3.2283,-3.228,-3.2279,-3.2268,-3.2267,-3.2281,-3.2291,-3.2303,-3.2355,-3.2352,-3.2382,-3.2393,-3.2402,-3.2407,-3.2435,-3.2448,-3.2309,-3.2309,-3.2309,0,0,-3.2318,-3.231,-3.2323,-3.2332,-3.2329,-3.2349,-3.2296,-3.2319,-3.2334,-3.2283,-3.2315,-3.2308,-3.2305,-3.2349,-3.2368,-3.2345,-3.2445,-3.2409,-3.2416,-3.2417,-3.2442,-3.2455,-3.2467,-3.2313,-3.2313,-3.2312,0,0,-3.2403,-3.2399,-3.2433,-3.2431,-3.2428,-3.2412,-3.2421,-3.2409,-3.2402,-3.2435,-3.2397,-3.2415,-3.244,-3.2439,-3.2442,-3.253,-3.25,-3.2536,-3.259,-3.2618,-3.2628,-3.2638,-3.2668,-3.268,-3.2542,-3.2542,-3.2542,0,-3.2453,-3.2482,-3.2454,-3.248,-3.2485,-3.2442,-3.2477,-3.2477,-3.2477,-3.2482,-3.2457,-3.2488,-3.2483,-3.2527,-3.2549,-3.2553,-3.2561,-3.2535,-3.2629,-3.2639,-3.2647,-3.2676,-3.2687,-3.2546,-3.2546,-3.2545,-3.2545,0,-3.2545,-3.2566,-3.2594,-3.2597,-3.2606,-3.2636,-3.2612,-3.2625,-3.2604,-3.2591,-3.2626,-3.2619,-3.2629,-3.2638,-3.2618,-3.2679,-3.2665,-3.2636,-3.2589,-3.2665,-3.2691,-3.2702,-3.2552,-3.2551,-3.2549,-3.2548,0,0,-3.2667,-3.2656,-3.2666,-3.2667,-3.2662,-3.2678,-3.2707,-3.2718,-3.2729,-3.2732,-3.2755,-3.2779,-3.2752,-3.2756,-3.2735,-3.276,-3.2829,-3.2727,-3.2726,-3.2745,-3.2896,-3.2917,-3.2931,-3.2811,-3.2813,-3.2814,-3.2896,0,-3.2747,-3.2796,-3.2772,-3.2824,-3.2843,-3.2804,-3.283,-3.283,-3.282,-3.2834,-3.2823,-3.284,-3.2804,-3.2805,-3.2828,-3.2816,-3.2859,-3.281,-3.2831,-3.2832,-3.2831,-3.2944,-3.2966,-3.3044,-3.2907,-3.2908,-3.291,0,-3.2846,-3.2854,-3.2908,-3.2901,-3.2908,-3.2931,-3.2939,-3.2955,-3.2954,-3.2945,-3.2951,-3.2926,-3.2954,-3.2911,-3.295,-3.2918,-3.2925,-3.2921,-3.2924,-3.2922,-3.2874,-3.2945,-3.3068,-3.3079,-3.2926,-3.2924,-3.2923,0,-3.2928,-3.2953,-3.2988,-3.2991,-3.2983,-3.3001,-3.2999,-3.2996,-3.3004,-3.3012,-3.3017,-3.3029,-3.3034,-3.3044,-3.3023,-3.2993,-3.3065,-3.3019,-3.3057,-3.3058,-3.3071,-3.307,-3.3196,-3.308,-3.308,-3.308,-3.308,0,-3.3018,-3.3052,-3.3025,-3.3047,-3.3084,-3.3058,-3.3096,-3.309,-3.3089,-3.3109,-3.3076,-3.3096,-3.3067,-3.3084,-3.3068,-3.3103,-3.3106,-3.3099,-3.3094,-3.3101,-3.3101,-3.3103,-3.3097,-3.3083,-3.3082,-3.3082,-3.3081,0,-3.3115,-3.3098,-3.3134,-3.3125,-3.3124,-3.3152,-3.3144,-3.3164,-3.3153,-3.3179,-3.3184,-3.3166,-3.3184,-3.3165,-3.3182,-3.3171,-3.3217,-3.3205,-3.3217,-3.3213,-3.3251,-3.3247,-3.338,-3.3396,-3.3273,-3.3274,-3.3275,0,-3.3172,-3.3198,-3.3193,-3.3204,-3.3204,-3.3223,-3.3232,-3.3208,-3.3219,-3.3222,-3.3242,-3.3258,-3.3269,-3.33,-3.3288,-3.3302,-3.3288,-3.3335,-3.329,-3.3296,-3.3287,-3.3285,-3.3288,-3.3343,-3.3344,-3.3345,-3.3346,0,-3.3276,-3.3267,-3.3281,-3.3294,-3.3306,-3.3314,-3.3319,-3.3331,-3.3307,-3.332,-3.3339,-3.3348,-3.3366,-3.3382,-3.3393,-3.339,-3.3364,-3.3361,-3.337,-3.3376,-3.3381,-3.3378,-3.324,-3.3357,-3.3356,-3.3355,-3.3355,-3.3354,-3.3354,-3.3375,-3.3375,-3.3392,-3.3395,-3.3402,-3.342,-3.3412,-3.3428,-3.3441,-3.3427,-3.345,-3.3451,-3.3462,-3.3463,-3.3481,-3.3461,-3.3474,-3.3477,-3.3481,-3.3486,-3.3381,-3.3483,-3.3482,-3.3482,-3.3482,-3.3481,0,-3.3455,-3.3454,-3.347,-3.348,-3.3494,-3.3471,-3.3476,-3.3489,-3.351,-3.3514,-3.3526,-3.3549,-3.3565,-3.3556,-3.357,-3.3586,-3.3574,-3.359,-3.3587,-3.3587,-3.3503,-3.3493,-3.3599,-3.3599,-3.3599,-3.3599,-3.3599,-3.3599,-3.3508,-3.3543,-3.3535,-3.3571,-3.357,-3.3593,-3.3598,-3.3605,-3.3607,-3.3634,-3.3647,-3.3642,-3.3641,-3.3655,-3.3669,-3.3666,-3.3671,-3.3691,-3.3684,-3.3605,-3.3593,-3.3582,-3.3572,-3.3693,-3.3693,-3.3766,-3.3767,-3.3768]},{"header":{"parameterUnit":"m.s-1","parameterCategory":1,"la1":30.2991,"la2":30.254,"lo1":-89.0895,"lo2":-89.0444,"dy":0.0017,"dx":0.0017,"nx":28,"ny":28,"refTime":"2024-06-04T03:00:00:Z","depth":0,"parameterNumber":3,"parameterNumberName":"V-component_of_WINDS"},"data":[0,0,0,0,0,0,0,0,0,0,0,0,0,0,0,0,0,0,0,0,0,0,0,0,0,0,0,0,0,0,0,0,0,0,0,0,0,0,0,0,0,0,0,0,0,0,0,0,0,0,0,0,0,0,0,0,0,0,5.1834,5.1836,0,5.2004,5.2006,5.2008,5.2057,5.2056,5.2055,5.2054,5.2224,5.2229,5.2234,0,0,0,0,0,0,0,0,0,0,0,0,0,5.1546,5.1551,5.1834,5.1836,5.1838,5.2003,5.2006,5.2008,5.2057,5.2056,5.2055,5.2054,5.2222,5.2228,5.2235,0,0,0,0,0,0,0,0,0,0,0,0,0,5.1689,5.1553,5.1833,5.1882,5.1888,5.2003,5.2006,5.2009,5.2057,5.2056,5.2055,5.2053,5.222,5.2228,5.2236,5.2312,0,0,5.226,5.2264,0,0,0,0,0,0,0,0,5.1681,5.17,5.1873,5.1879,5.1886,5.2008,5.1967,5.211,5.2058,5.1993,5.2054,5.2053,5.2153,5.2166,5.2201,5.232,5.2328,5.2261,5.2266,5.2269,5.2272,0,0,0,0,0,0,0,5.1671,5.1693,5.1901,5.1875,5.1884,5.1894,5.1913,5.1994,5.2078,5.1999,5.2003,5.2022,5.2156,5.2193,5.2205,5.233,5.2261,5.2268,5.2273,5.2276,5.252,5.2522,0,0,0,0,0,0,5.1653,5.1684,5.1895,5.1906,5.1778,5.1901,5.1922,5.197,5.2078,5.2093,5.2023,5.2024,5.218,5.2196,5.2212,5.2309,5.2269,5.2277,5.2281,5.2519,5.2521,5.2522,0,0,0,0,0,0,5.1647,5.1672,5.1889,5.1796,5.1825,5.1907,5.1961,5.1974,5.2011,5.2096,5.2111,5.2046,5.218,5.22,5.2287,5.2316,5.228,5.2288,5.2517,5.2519,5.2521,5.2504,0,0,0,0,0,0,5.1639,5.1669,5.1701,5.1797,5.1829,5.1963,5.1963,5.1978,5.2026,5.2028,5.2122,5.2136,5.218,5.2275,5.2295,5.2326,5.2294,5.2514,5.2518,5.2521,5.2503,5.2506,5.2508,0,0,0,0,0,5.1628,5.1688,5.1702,5.1727,5.187,5.1965,5.1983,5.2035,5.2028,5.2059,5.2113,5.2133,5.2309,5.2283,5.2307,5.234,5.2513,5.2517,5.252,5.2501,5.2505,5.2508,0,0,0,0,0,0,5.1592,5.1702,5.1718,5.1811,5.1878,5.1973,5.2014,5.2037,5.2107,5.2106,5.2165,5.2185,5.2268,5.2312,5.2283,5.242,5.2411,5.242,5.2388,5.2393,5.2396,5.2384,5.2301,0,0,0,0,0,5.1595,5.1664,5.1755,5.1828,5.1861,5.1931,5.1974,5.2008,5.208,5.2108,5.2169,5.2236,5.2306,5.2352,5.2421,5.2508,5.2529,5.2542,5.2545,5.2547,5.2554,5.2604,5.2611,5.2535,5.2535,5.2535,0,0,5.1602,5.167,5.171,5.1822,5.1879,5.1947,5.1955,5.2028,5.2079,5.2118,5.2206,5.2252,5.233,5.2418,5.2459,5.2457,5.258,5.2552,5.2553,5.2559,5.2608,5.2615,5.2622,5.2537,5.2537,5.2536,0,0,5.165,5.1708,5.1776,5.1832,5.1917,5.1963,5.1979,5.207,5.2103,5.2191,5.2222,5.2282,5.2403,5.2458,5.2501,5.2568,5.2588,5.2588,5.2604,5.2652,5.2658,5.2663,5.2688,5.2696,5.2595,5.2595,5.2595,0,5.1648,5.1754,5.1807,5.1879,5.1927,5.1966,5.2035,5.2086,5.2188,5.222,5.2216,5.2368,5.2424,5.2525,5.2541,5.2574,5.2594,5.2579,5.2653,5.2659,5.2665,5.2689,5.2698,5.2594,5.2594,5.2595,5.2595,0,5.1747,5.182,5.1864,5.1964,5.2017,5.2086,5.2148,5.2195,5.2223,5.2269,5.2357,5.2425,5.2509,5.2535,5.2563,5.264,5.2636,5.2641,5.2635,5.2671,5.2695,5.2704,5.2594,5.2594,5.2594,5.2594,0,0,5.178,5.1907,5.1923,5.1969,5.2064,5.2121,5.219,5.2274,5.2313,5.2381,5.2442,5.2541,5.2547,5.2597,5.263,5.2671,5.2721,5.2672,5.2675,5.268,5.281,5.2807,5.2817,5.2734,5.2735,5.2737,5.2804,0,5.1842,5.1971,5.202,5.2124,5.2192,5.2229,5.229,5.2354,5.2398,5.2461,5.2508,5.2579,5.2581,5.2611,5.2653,5.2706,5.2748,5.2701,5.279,5.2792,5.2771,5.2829,5.2826,5.2886,5.2813,5.2815,5.2816,0,5.1932,5.2003,5.2114,5.2201,5.2231,5.2286,5.2366,5.2425,5.2498,5.2527,5.2581,5.2612,5.2685,5.2671,5.2772,5.2739,5.2778,5.2808,5.2812,5.2824,5.2808,5.2844,5.2907,5.2916,5.2831,5.283,5.2829,0,5.1946,5.2069,5.2152,5.219,5.2293,5.233,5.2374,5.2446,5.2492,5.2561,5.2592,5.2667,5.2709,5.2766,5.2816,5.2801,5.2912,5.2902,5.2938,5.2937,5.2962,5.296,5.3033,5.2983,5.2983,5.2982,5.2982,0,5.2011,5.2079,5.216,5.2211,5.2287,5.2341,5.2414,5.2461,5.2524,5.2583,5.2618,5.2673,5.2735,5.2797,5.2836,5.2914,5.2931,5.2956,5.2966,5.2955,5.2952,5.2982,5.298,5.2985,5.2984,5.2984,5.2984,0,5.2042,5.2099,5.2192,5.2282,5.2306,5.2358,5.2434,5.2484,5.2528,5.2604,5.2624,5.2694,5.2769,5.2824,5.292,5.2946,5.303,5.3038,5.3006,5.3011,5.3044,5.3041,5.3141,5.3158,5.3094,5.3095,5.3095,0,5.2081,5.2134,5.2229,5.2272,5.2317,5.2385,5.2433,5.2487,5.2536,5.2622,5.2661,5.2739,5.2804,5.2922,5.298,5.3054,5.3066,5.3096,5.3077,5.3064,5.3068,5.3065,5.3071,5.3099,5.3099,5.31,5.31,0,5.2144,5.217,5.2238,5.2317,5.2373,5.2437,5.2501,5.2534,5.2599,5.2651,5.2729,5.2779,5.2878,5.2955,5.3034,5.3077,5.31,5.3105,5.3117,5.3107,5.3087,5.31,5.3015,5.3103,5.3103,5.3103,5.3102,5.3102,5.2182,5.2231,5.2305,5.238,5.2434,5.2493,5.2545,5.2595,5.2662,5.2748,5.2774,5.2855,5.2925,5.3033,5.3078,5.314,5.3139,5.3157,5.3162,5.3166,5.3166,5.3075,5.3154,5.3154,5.3154,5.3154,5.3154,0,5.2249,5.2298,5.2366,5.2455,5.2514,5.2529,5.2601,5.2648,5.272,5.2783,5.2847,5.2935,5.3009,5.3073,5.3149,5.3187,5.3199,5.3205,5.3204,5.3213,5.3162,5.3144,5.3194,5.3194,5.3194,5.3194,5.3194,5.3194,5.229,5.2374,5.2408,5.2517,5.2566,5.2646,5.2686,5.2739,5.2791,5.2889,5.2951,5.2992,5.3055,5.3136,5.3204,5.322,5.3247,5.3251,5.327,5.3221,5.3217,5.3213,5.3197,5.3256,5.3256,5.3317,5.3318,5.3318]}]]